When you browse on this site, cookies collect data to enhance your experience and personalize the content and advertising you see.
Visit our Privacy Policy to learn more. By continuing to use the site, you agree to this use of cookies and data.
  • In United Kingdom
  • List of Countries
  • For 7 days
  • Water Temperature
  • Satellite Maps
  • Weather Map
  • Weather Widgets
  • user-avatar
    Login

    Hourly Weather Tlalixtac de Cabrera

    Today, 24 May, Friday

    Time Temperature Precipitation Wind Pressure Humidity
    00:00 +20°C° 0.1 mm 1 mps 630 mmHg 84%
    01:00 +20°C° 0.1 mm 1 mps 630 mmHg 85%
    02:00 +20°C° 0.1 mm 1 mps 630 mmHg 87%
    03:00 +20°C° 0.1 mm 1 mps 629 mmHg 88%
    04:00 +20°C° 0.1 mm 1 mps 629 mmHg 89%
    05:00 +19°C° 0.1 mm 1 mps 629 mmHg 90%
    06:00 +19°C° 0.1 mm 1 mps 629 mmHg 92%
    07:00 +21°C° 0 mm 1 mps 630 mmHg 83%
    08:00 +23°C° 0 mm 1 mps 631 mmHg 75%
    09:00 +24°C° 0 mm 1 mps 631 mmHg 66%
    10:00 +26°C° 0.1 mm 1 mps 632 mmHg 58%
    11:00 +28°C° 0.1 mm 2 mps 632 mmHg 49%
    12:00 +30°C° 0.1 mm 2 mps 633 mmHg 41%
    13:00 +29°C° 0.1 mm 2 mps 632 mmHg 41%
    14:00 +29°C° 0.1 mm 2 mps 632 mmHg 42%
    15:00 +29°C° 0.1 mm 2 mps 631 mmHg 42%
    16:00 +28°C° 0.1 mm 2 mps 631 mmHg 46%
    17:00 +27°C° 0.1 mm 2 mps 631 mmHg 50%
    18:00 +26°C° 0.1 mm 2 mps 630 mmHg 53%
    19:00 +25°C° 0 mm 2 mps 630 mmHg 63%
    20:00 +23°C° 0 mm 2 mps 630 mmHg 72%
    21:00 +20°C° 0 mm 2 mps 630 mmHg 81%
    22:00 +19°C° 0 mm 2 mps 630 mmHg 84%
    23:00 +20°C° 0 mm 1 mps 630 mmHg 87%

    Tomorrow, 25 May, Saturday

    Time Temperature Precipitation Wind Pressure Humidity
    00:00 +19°C° 0 mm 1 mps 630 mmHg 90%
    01:00 +19°C° 0 mm 1 mps 630 mmHg 90%
    02:00 +18°C° 0 mm 1 mps 629 mmHg 90%
    03:00 +18°C° 0 mm 1 mps 629 mmHg 90%
    04:00 +18°C° 0 mm 1 mps 629 mmHg 88%
    05:00 +16°C° 0 mm 1 mps 629 mmHg 86%
    06:00 +16°C° 0 mm 1 mps 629 mmHg 85%
    07:00 +20°C° 0 mm 1 mps 630 mmHg 73%
    08:00 +22°C° 0 mm 1 mps 631 mmHg 62%
    09:00 +25°C° 0 mm 1 mps 632 mmHg 51%
    10:00 +26°C° 0 mm 1 mps 633 mmHg 46%
    11:00 +28°C° 0 mm 1 mps 633 mmHg 41%
    12:00 +30°C° 0 mm 2 mps 633 mmHg 36%
    13:00 +29°C° 0 mm 2 mps 633 mmHg 38%
    14:00 +29°C° 0 mm 2 mps 632 mmHg 40%
    15:00 +28°C° 0 mm 2 mps 631 mmHg 42%
    16:00 +27°C° 0.2 mm 2 mps 631 mmHg 47%
    17:00 +27°C° 0.2 mm 2 mps 631 mmHg 51%
    18:00 +26°C° 0.2 mm 2 mps 630 mmHg 56%
    19:00 +24°C° 0.1 mm 2 mps 630 mmHg 64%
    20:00 +21°C° 0.1 mm 2 mps 631 mmHg 72%
    21:00 +20°C° 0.1 mm 2 mps 631 mmHg 81%
    22:00 +19°C° 0 mm 2 mps 631 mmHg 84%
    23:00 +20°C° 0 mm 1 mps 631 mmHg 87%

    Day after tomorrow, 26 May, Sunday

    Time Temperature Precipitation Wind Pressure Humidity
    00:00 +19°C° 0 mm 1 mps 631 mmHg 90%
    01:00 +19°C° 0 mm 1 mps 630 mmHg 91%
    02:00 +18°C° 0 mm 1 mps 630 mmHg 91%
    03:00 +18°C° 0 mm 1 mps 629 mmHg 92%
    04:00 +16°C° 0 mm 1 mps 629 mmHg 91%
    05:00 +16°C° 0 mm 1 mps 629 mmHg 90%
    06:00 +16°C° 0 mm 1 mps 629 mmHg 89%
    07:00 +19°C° 0 mm 1 mps 630 mmHg 75%
    08:00 +22°C° 0 mm 1 mps 631 mmHg 62%
    09:00 +25°C° 0 mm 1 mps 632 mmHg 48%
    10:00 +27°C° 0 mm 1 mps 633 mmHg 42%
    11:00 +28°C° 0 mm 1 mps 633 mmHg 36%
    12:00 +30°C° 0 mm 1 mps 634 mmHg 31%
    13:00 +31°C° 0 mm 2 mps 633 mmHg 31%
    14:00 +31°C° 0 mm 2 mps 633 mmHg 30%
    15:00 +31°C° 0 mm 2 mps 632 mmHg 30%
    16:00 +30°C° 0 mm 2 mps 632 mmHg 35%
    17:00 +28°C° 0 mm 3 mps 631 mmHg 41%
    18:00 +27°C° 0 mm 3 mps 631 mmHg 46%
    19:00 +25°C° 0 mm 3 mps 631 mmHg 55%
    20:00 +24°C° 0 mm 2 mps 631 mmHg 63%
    21:00 +21°C° 0 mm 2 mps 631 mmHg 72%
    22:00 +21°C° 0 mm 1 mps 631 mmHg 76%
    23:00 +20°C° 0 mm 1 mps 631 mmHg 81%

    27 May, Monday

    Time Temperature Precipitation Wind Pressure Humidity
    00:00 +19°C° 0 mm 1 mps 631 mmHg 85%
    01:00 +19°C° 0 mm 1 mps 630 mmHg 87%
    02:00 +18°C° 0 mm 1 mps 629 mmHg 88%
    03:00 +18°C° 0 mm 1 mps 629 mmHg 89%
    04:00 +16°C° 0 mm 1 mps 629 mmHg 88%
    05:00 +16°C° 0 mm 1 mps 629 mmHg 86%
    06:00 +16°C° 0 mm 1 mps 628 mmHg 85%
    07:00 +20°C° 0 mm 1 mps 630 mmHg 72%
    08:00 +21°C° 0 mm 0 mps 631 mmHg 59%
    09:00 +24°C° 0 mm 0 mps 632 mmHg 47%
    10:00 +26°C° 0 mm 0 mps 633 mmHg 40%
    11:00 +30°C° 0 mm 1 mps 633 mmHg 34%
    12:00 +32°C° 0 mm 1 mps 633 mmHg 28%
    13:00 +32°C° 0 mm 1 mps 633 mmHg 27%
    14:00 +32°C° 0 mm 2 mps 632 mmHg 27%
    15:00 +32°C° 0 mm 2 mps 631 mmHg 27%
    16:00 +30°C° 0.1 mm 2 mps 631 mmHg 33%
    17:00 +29°C° 0.1 mm 3 mps 630 mmHg 40%
    18:00 +27°C° 0.1 mm 3 mps 630 mmHg 46%
    19:00 +25°C° 0.1 mm 2 mps 630 mmHg 55%
    20:00 +24°C° 0.1 mm 2 mps 630 mmHg 63%
    21:00 +22°C° 0.1 mm 1 mps 630 mmHg 72%
    22:00 +21°C° 0 mm 1 mps 630 mmHg 75%
    23:00 +20°C° 0 mm 1 mps 630 mmHg 79%

    28 May, Tuesday

    Time Temperature Precipitation Wind Pressure Humidity
    00:00 +18°C° 0 mm 0 mps 630 mmHg 83%
    01:00 +17°C° 0 mm 0 mps 629 mmHg 85%
    02:00 +17°C° 0 mm 0 mps 628 mmHg 87%
    03:00 +16°C° 0 mm 0 mps 628 mmHg 89%
    04:00 +16°C° 0 mm 0 mps 627 mmHg 89%
    05:00 +15°C° 0 mm 0 mps 627 mmHg 90%
    06:00 +15°C° 0 mm 0 mps 627 mmHg 90%
    07:00 +18°C° 0 mm 0 mps 628 mmHg 78%
    08:00 +23°C° 0 mm 1 mps 630 mmHg 65%
    09:00 +26°C° 0 mm 1 mps 631 mmHg 53%
    10:00 +28°C° 0 mm 1 mps 631 mmHg 45%
    11:00 +30°C° 0 mm 1 mps 631 mmHg 38%
    12:00 +32°C° 0 mm 1 mps 632 mmHg 31%
    13:00 +30°C° 0 mm 1 mps 631 mmHg 33%
    14:00 +29°C° 0 mm 1 mps 630 mmHg 36%
    15:00 +28°C° 0 mm 2 mps 629 mmHg 38%
    16:00 +28°C° 0.1 mm 2 mps 629 mmHg 42%
    17:00 +27°C° 0.1 mm 2 mps 628 mmHg 46%
    18:00 +26°C° 0.1 mm 1 mps 628 mmHg 50%
    19:00 +25°C° 0.1 mm 1 mps 628 mmHg 58%
    20:00 +23°C° 0.1 mm 1 mps 628 mmHg 66%
    21:00 +21°C° 0.1 mm 1 mps 628 mmHg 74%
    22:00 +21°C° 0 mm 1 mps 628 mmHg 78%
    23:00 +20°C° 0 mm 1 mps 628 mmHg 81%

    29 May, Wednesday

    Time Temperature Precipitation Wind Pressure Humidity
    00:00 +18°C° 0 mm 0 mps 628 mmHg 85%
    01:00 +19°C° 0 mm 1 mps 628 mmHg 86%
    02:00 +19°C° 0 mm 1 mps 627 mmHg 87%
    03:00 +18°C° 0 mm 1 mps 627 mmHg 89%
    04:00 +18°C° 0 mm 1 mps 627 mmHg 89%
    05:00 +18°C° 0 mm 1 mps 626 mmHg 90%
    06:00 +18°C° 0 mm 1 mps 626 mmHg 90%
    07:00 +19°C° 0 mm 0 mps 628 mmHg 77%
    08:00 +22°C° 0 mm 0 mps 629 mmHg 64%
    09:00 +25°C° 0 mm 0 mps 630 mmHg 51%
    10:00 +28°C° 0.1 mm 1 mps 630 mmHg 46%
    11:00 +30°C° 0.1 mm 1 mps 631 mmHg 41%
    12:00 +32°C° 0.1 mm 1 mps 631 mmHg 36%
    13:00 +31°C° 0.5 mm 1 mps 630 mmHg 37%
    14:00 +31°C° 0.5 mm 2 mps 630 mmHg 38%
    15:00 +30°C° 0.5 mm 2 mps 629 mmHg 39%
    16:00 +29°C° 0.7 mm 2 mps 629 mmHg 45%
    17:00 +28°C° 0.7 mm 2 mps 628 mmHg 51%
    18:00 +26°C° 0.7 mm 2 mps 628 mmHg 56%
    19:00 +25°C° 0.8 mm 1 mps 628 mmHg 62%
    20:00 +24°C° 0.8 mm 1 mps 629 mmHg 68%
    21:00 +22°C° 0.8 mm 1 mps 629 mmHg 74%
    22:00 +22°C° 0.1 mm 1 mps 629 mmHg 76%
    23:00 +21°C° 0.1 mm 1 mps 629 mmHg 79%
    Show more